Location: Celina Division
(33.3022°N, 96.7580°W)
Time: 13:24:46
(UTC+00:00)

GPS 2-04 Rocket1 - Pass Details

Date: 08 December 2021
Orbit: 412 x 532 km, 35.6° (Epoch: 28 January)

Event Time Altitude Azimuth Distance (km) Brightness Sun altitude
Rises 23:42:30 0° 284° (WNW) 2,653 7.3 -5.2°
Reaches altitude 10° 23:44:45 10° 281° (W) 1,772 6.4 -5.6°
Maximum altitude 23:48:48 62° 201° (SSW) 603 3.3 -6.4°
Drops below altitude 10° 23:52:52 10° 120° (ESE) 1,775 5.1 -7.1°
Sets 23:55:07 0° 117° (ESE) 2,658 5.9 -7.6°
